owner,sensor,date,latitude,longitude,dew_point_temperature,qcFlag 
SCCF RECON,ioos:station:SCCF:16:1,2017-10-01T04:30:00Z,26.4345,-81.9647,25.0,1111122 
SCCF RECON,ioos:station:SCCF:16:1,2017-10-01T05:30:00Z,26.4345,-81.9647,24.6,1111122 
SCCF RECON,ioos:station:SCCF:16:1,2017-10-01T06:30:00Z,26.4345,-81.9647,24.1,1111122 
SCCF RECON,ioos:station:SCCF:16:1,2017-10-01T07:30:00Z,26.4345,-81.9647,24.0,1111122 
SCCF RECON,ioos:station:SCCF:16:1,2017-10-01T08:30:00Z,26.4345,-81.9647,23.5,1111122 
SCCF RECON,ioos:station:SCCF:16:1,2017-10-01T09:30:00Z,26.4345,-81.9647,23.7,1111122 
SCCF RECON,ioos:station:SCCF:16:1,2017-10-01T10:30:00Z,26.4345,-81.9647,22.6,1111122 
SCCF RECON,ioos:station:SCCF:16:1,2017-10-01T11:30:00Z,26.4345,-81.9647,21.9,1111122 
SCCF RECON,ioos:station:SCCF:16:1,2017-10-01T12:30:00Z,26.4345,-81.9647,21.9,1111122 
SCCF RECON,ioos:station:SCCF:16:1,2017-10-01T13:30:00Z,26.4345,-81.9647,23.6,1111122 
SCCF RECON,ioos:station:SCCF:16:1,2017-10-01T14:30:00Z,26.4345,-81.9647,25.7,1111122 
SCCF RECON,ioos:station:SCCF:16:1,2017-10-01T15:30:00Z,26.4345,-81.9647,27.0,1111122 
SCCF RECON,ioos:station:SCCF:16:1,2017-10-01T16:30:00Z,26.4345,-81.9647,29.0,1111122 
SCCF RECON,ioos:station:SCCF:16:1,2017-10-01T17:30:00Z,26.4345,-81.9647,29.8,1111122 
SCCF RECON,ioos:station:SCCF:16:1,2017-10-01T18:30:00Z,26.4345,-81.9647,28.8,1111122 
SCCF RECON,ioos:station:SCCF:16:1,2017-10-01T19:30:00Z,26.4345,-81.9647,31.5,1111122 
SCCF RECON,ioos:station:SCCF:16:1,2017-10-01T20:30:00Z,26.4345,-81.9647,30.1,1111122 
SCCF RECON,ioos:station:SCCF:16:1,2017-10-01T21:30:00Z,26.4345,-81.9647,30.9,1111122 
SCCF RECON,ioos:station:SCCF:16:1,2017-10-01T22:30:00Z,26.4345,-81.9647,29.9,1111122 
SCCF RECON,ioos:station:SCCF:16:1,2017-10-02T04:30:00Z,26.4345,-81.9647,24.4,1111122 
SCCF RECON,ioos:station:SCCF:16:1,2017-10-02T05:30:00Z,26.4345,-81.9647,23.5,1111122 
SCCF RECON,ioos:station:SCCF:16:1,2017-10-02T07:00:00Z,26.4345,-81.9647,23.7,1111122 
SCCF RECON,ioos:station:SCCF:16:1,2017-10-02T07:30:00Z,26.4345,-81.9647,23.6,1111122 
SCCF RECON,ioos:station:SCCF:16:1,2017-10-02T08:30:00Z,26.4345,-81.9647,23.6,1111122 
SCCF RECON,ioos:station:SCCF:16:1,2017-10-02T09:30:00Z,26.4345,-81.9647,23.4,1111122 
SCCF RECON,ioos:station:SCCF:16:1,2017-10-02T10:30:00Z,26.4345,-81.9647,22.8,1111122 
SCCF RECON,ioos:station:SCCF:16:1,2017-10-02T11:30:00Z,26.4345,-81.9647,22.8,1111122 
SCCF RECON,ioos:station:SCCF:16:1,2017-10-02T12:30:00Z,26.4345,-81.9647,23.4,1111122 
SCCF RECON,ioos:station:SCCF:16:1,2017-10-02T13:30:00Z,26.4345,-81.9647,24.6,1111122 
SCCF RECON,ioos:station:SCCF:16:1,2017-10-02T14:30:00Z,26.4345,-81.9647,26.0,1111122 
SCCF RECON,ioos:station:SCCF:16:1,2017-10-02T15:30:00Z,26.4345,-81.9647,26.9,1111122 
SCCF RECON,ioos:station:SCCF:16:1,2017-10-02T16:30:00Z,26.4345,-81.9647,28.3,1111122 
SCCF RECON,ioos:station:SCCF:16:1,2017-10-02T17:30:00Z,26.4345,-81.9647,27.4,1111122 
SCCF RECON,ioos:station:SCCF:16:1,2017-10-02T18:30:00Z,26.4345,-81.9647,23.9,1111122 
SCCF RECON,ioos:station:SCCF:16:1,2017-10-02T19:30:00Z,26.4345,-81.9647,26.9,1111122 
SCCF RECON,ioos:station:SCCF:16:1,2017-10-02T20:30:00Z,26.4345,-81.9647,26.8,1111122 
SCCF RECON,ioos:station:SCCF:16:1,2017-10-02T21:30:00Z,26.4345,-81.9647,24.7,1111122 
SCCF RECON,ioos:station:SCCF:16:1,2017-10-02T22:30:00Z,26.4345,-81.9647,25.1,1111122 
SCCF RECON,ioos:station:SCCF:16:1,2017-10-03T04:30:00Z,26.4345,-81.9647,23.8,1111122 
SCCF RECON,ioos:station:SCCF:16:1,2017-10-03T05:30:00Z,26.4345,-81.9647,23.7,1111122 
SCCF RECON,ioos:station:SCCF:16:1,2017-10-03T06:30:00Z,26.4345,-81.9647,23.7,1111122 
SCCF RECON,ioos:station:SCCF:16:1,2017-10-03T07:30:00Z,26.4345,-81.9647,23.0,1111122 
SCCF RECON,ioos:station:SCCF:16:1,2017-10-03T08:30:00Z,26.4345,-81.9647,22.6,1111122 
SCCF RECON,ioos:station:SCCF:16:1,2017-10-03T09:30:00Z,26.4345,-81.9647,22.4,1111122 
SCCF RECON,ioos:station:SCCF:16:1,2017-10-03T12:00:00Z,26.4345,-81.9647,22.8,1111122 
SCCF RECON,ioos:station:SCCF:16:1,2017-10-03T12:30:00Z,26.4345,-81.9647,23.0,1111122 
SCCF RECON,ioos:station:SCCF:16:1,2017-10-03T13:30:00Z,26.4345,-81.9647,22.9,1111122 
SCCF RECON,ioos:station:SCCF:16:1,2017-10-03T14:30:00Z,26.4345,-81.9647,24.4,1111122 
SCCF RECON,ioos:station:SCCF:16:1,2017-10-03T15:30:00Z,26.4345,-81.9647,23.9,1111122 
SCCF RECON,ioos:station:SCCF:16:1,2017-10-03T16:30:00Z,26.4345,-81.9647,26.1,1111122 
SCCF RECON,ioos:station:SCCF:16:1,2017-10-03T17:30:00Z,26.4345,-81.9647,26.2,1111122 
SCCF RECON,ioos:station:SCCF:16:1,2017-10-03T18:30:00Z,26.4345,-81.9647,25.1,1111122 
SCCF RECON,ioos:station:SCCF:16:1,2017-10-03T19:30:00Z,26.4345,-81.9647,25.9,1111122 
SCCF RECON,ioos:station:SCCF:16:1,2017-10-03T20:30:00Z,26.4345,-81.9647,26.1,1111122 
SCCF RECON,ioos:station:SCCF:16:1,2017-10-03T21:30:00Z,26.4345,-81.9647,26.4,1111122 
SCCF RECON,ioos:station:SCCF:16:1,2017-10-03T22:30:00Z,26.4345,-81.9647,25.2,1111122 
SCCF RECON,ioos:station:SCCF:16:1,2017-10-04T04:30:00Z,26.4345,-81.9647,22.6,1111122 
SCCF RECON,ioos:station:SCCF:16:1,2017-10-04T05:30:00Z,26.4345,-81.9647,22.6,1111122 
SCCF RECON,ioos:station:SCCF:16:1,2017-10-04T06:30:00Z,26.4345,-81.9647,22.8,1111122 
SCCF RECON,ioos:station:SCCF:16:1,2017-10-04T07:30:00Z,26.4345,-81.9647,22.7,1111122 
SCCF RECON,ioos:station:SCCF:16:1,2017-10-04T08:30:00Z,26.4345,-81.9647,23.1,1111122 
SCCF RECON,ioos:station:SCCF:16:1,2017-10-04T09:30:00Z,26.4345,-81.9647,22.4,1111122 
SCCF RECON,ioos:station:SCCF:16:1,2017-10-04T11:30:00Z,26.4345,-81.9647,21.8,1111122 
SCCF RECON,ioos:station:SCCF:16:1,2017-10-04T12:30:00Z,26.4345,-81.9647,22.6,1111122 
SCCF RECON,ioos:station:SCCF:16:1,2017-10-04T13:30:00Z,26.4345,-81.9647,24.1,1111122 
SCCF RECON,ioos:station:SCCF:16:1,2017-10-04T14:30:00Z,26.4345,-81.9647,25.7,1111122 
SCCF RECON,ioos:station:SCCF:16:1,2017-10-04T15:30:00Z,26.4345,-81.9647,27.2,1111122 
SCCF RECON,ioos:station:SCCF:16:1,2017-10-04T16:30:00Z,26.4345,-81.9647,28.2,1111122 
SCCF RECON,ioos:station:SCCF:16:1,2017-10-04T17:30:00Z,26.4345,-81.9647,28.9,1111122 
SCCF RECON,ioos:station:SCCF:16:1,2017-10-04T18:30:00Z,26.4345,-81.9647,29.6,1111122 
SCCF RECON,ioos:station:SCCF:16:1,2017-10-04T19:30:00Z,26.4345,-81.9647,29.8,1111122 
SCCF RECON,ioos:station:SCCF:16:1,2017-10-04T20:30:00Z,26.4345,-81.9647,29.7,1111122 
SCCF RECON,ioos:station:SCCF:16:1,2017-10-04T21:30:00Z,26.4345,-81.9647,29.5,1111122 
SCCF RECON,ioos:station:SCCF:16:1,2017-10-04T22:30:00Z,26.4345,-81.9647,24.9,1111122 
SCCF RECON,ioos:station:SCCF:16:1,2017-10-05T04:30:00Z,26.4345,-81.9647,22.6,1111122 
SCCF RECON,ioos:station:SCCF:16:1,2017-10-05T05:30:00Z,26.4345,-81.9647,22.7,1111122 
SCCF RECON,ioos:station:SCCF:16:1,2017-10-05T06:30:00Z,26.4345,-81.9647,22.6,1111122 
SCCF RECON,ioos:station:SCCF:16:1,2017-10-05T07:30:00Z,26.4345,-81.9647,22.7,1111122 
SCCF RECON,ioos:station:SCCF:16:1,2017-10-05T08:30:00Z,26.4345,-81.9647,21.8,1111122 
SCCF RECON,ioos:station:SCCF:16:1,2017-10-05T09:30:00Z,26.4345,-81.9647,21.9,1111122 
SCCF RECON,ioos:station:SCCF:16:1,2017-10-05T10:30:00Z,26.4345,-81.9647,21.9,1111122 
SCCF RECON,ioos:station:SCCF:16:1,2017-10-05T11:30:00Z,26.4345,-81.9647,21.9,1111122 
SCCF RECON,ioos:station:SCCF:16:1,2017-10-05T13:30:00Z,26.4345,-81.9647,22.0,1111122 
SCCF RECON,ioos:station:SCCF:16:1,2017-10-05T14:30:00Z,26.4345,-81.9647,23.2,1111122 
SCCF RECON,ioos:station:SCCF:16:1,2017-10-05T15:30:00Z,26.4345,-81.9647,23.8,1111122 
SCCF RECON,ioos:station:SCCF:16:1,2017-10-05T16:30:00Z,26.4345,-81.9647,23.7,1111122 
SCCF RECON,ioos:station:SCCF:16:1,2017-10-05T18:00:00Z,26.4345,-81.9647,23.2,1111122 
SCCF RECON,ioos:station:SCCF:16:1,2017-10-05T19:00:00Z,26.4345,-81.9647,23.9,1111122 
SCCF RECON,ioos:station:SCCF:16:1,2017-10-05T20:00:00Z,26.4345,-81.9647,24.4,1111122 
SCCF RECON,ioos:station:SCCF:16:1,2017-10-05T20:30:00Z,26.4345,-81.9647,24.7,1111122 
SCCF RECON,ioos:station:SCCF:16:1,2017-10-05T21:30:00Z,26.4345,-81.9647,24.5,1111122 
SCCF RECON,ioos:station:SCCF:16:1,2017-10-05T22:30:00Z,26.4345,-81.9647,23.2,1111122 
SCCF RECON,ioos:station:SCCF:16:1,2017-10-06T04:30:00Z,26.4345,-81.9647,22.8,1111122 
SCCF RECON,ioos:station:SCCF:16:1,2017-10-06T05:30:00Z,26.4345,-81.9647,22.4,1111122 
SCCF RECON,ioos:station:SCCF:16:1,2017-10-06T06:30:00Z,26.4345,-81.9647,22.2,1111122 
SCCF RECON,ioos:station:SCCF:16:1,2017-10-06T07:30:00Z,26.4345,-81.9647,22.3,1111122 
SCCF RECON,ioos:station:SCCF:16:1,2017-10-06T08:30:00Z,26.4345,-81.9647,22.2,1111122 
SCCF RECON,ioos:station:SCCF:16:1,2017-10-06T09:30:00Z,26.4345,-81.9647,22.5,1111122 
SCCF RECON,ioos:station:SCCF:16:1,2017-10-06T10:30:00Z,26.4345,-81.9647,22.8,1111122 
SCCF RECON,ioos:station:SCCF:16:1,2017-10-06T11:30:00Z,26.4345,-81.9647,23.1,1111122 
SCCF RECON,ioos:station:SCCF:16:1,2017-10-06T12:30:00Z,26.4345,-81.9647,23.4,1111122 
SCCF RECON,ioos:station:SCCF:16:1,2017-10-06T13:30:00Z,26.4345,-81.9647,24.1,1111122 
SCCF RECON,ioos:station:SCCF:16:1,2017-10-06T14:30:00Z,26.4345,-81.9647,25.8,1111122 
SCCF RECON,ioos:station:SCCF:16:1,2017-10-06T15:30:00Z,26.4345,-81.9647,27.0,1111122 
SCCF RECON,ioos:station:SCCF:16:1,2017-10-06T16:30:00Z,26.4345,-81.9647,27.7,1111122 
SCCF RECON,ioos:station:SCCF:16:1,2017-10-06T17:30:00Z,26.4345,-81.9647,27.7,1111122 
SCCF RECON,ioos:station:SCCF:16:1,2017-10-06T18:30:00Z,26.4345,-81.9647,27.9,1111122 
SCCF RECON,ioos:station:SCCF:16:1,2017-10-06T19:30:00Z,26.4345,-81.9647,28.5,1111122 
SCCF RECON,ioos:station:SCCF:16:1,2017-10-06T20:30:00Z,26.4345,-81.9647,28.6,1111122 
SCCF RECON,ioos:station:SCCF:16:1,2017-10-06T21:30:00Z,26.4345,-81.9647,28.1,1111122 
SCCF RECON,ioos:station:SCCF:16:1,2017-10-06T22:30:00Z,26.4345,-81.9647,28.0,1111122 
SCCF RECON,ioos:station:SCCF:16:1,2017-10-07T04:30:00Z,26.4345,-81.9647,25.9,1111122 
SCCF RECON,ioos:station:SCCF:16:1,2017-10-07T05:30:00Z,26.4345,-81.9647,25.6,1111122 
SCCF RECON,ioos:station:SCCF:16:1,2017-10-07T06:30:00Z,26.4345,-81.9647,25.3,1111122 
SCCF RECON,ioos:station:SCCF:16:1,2017-10-07T07:30:00Z,26.4345,-81.9647,25.1,1111122 
SCCF RECON,ioos:station:SCCF:16:1,2017-10-07T08:30:00Z,26.4345,-81.9647,24.9,1111122 
SCCF RECON,ioos:station:SCCF:16:1,2017-10-07T09:30:00Z,26.4345,-81.9647,24.7,1111122 
SCCF RECON,ioos:station:SCCF:16:1,2017-10-07T10:30:00Z,26.4345,-81.9647,24.9,1111122 
SCCF RECON,ioos:station:SCCF:16:1,2017-10-07T11:30:00Z,26.4345,-81.9647,24.7,1111122 
SCCF RECON,ioos:station:SCCF:16:1,2017-10-07T12:30:00Z,26.4345,-81.9647,24.6,1111122 
SCCF RECON,ioos:station:SCCF:16:1,2017-10-07T13:30:00Z,26.4345,-81.9647,25.4,1111122 
SCCF RECON,ioos:station:SCCF:16:1,2017-10-07T14:30:00Z,26.4345,-81.9647,26.5,1111122 
SCCF RECON,ioos:station:SCCF:16:1,2017-10-07T15:30:00Z,26.4345,-81.9647,27.4,1111122 
SCCF RECON,ioos:station:SCCF:16:1,2017-10-07T16:30:00Z,26.4345,-81.9647,27.8,1111122 
SCCF RECON,ioos:station:SCCF:16:1,2017-10-07T17:30:00Z,26.4345,-81.9647,27.6,1111122 
SCCF RECON,ioos:station:SCCF:16:1,2017-10-07T18:30:00Z,26.4345,-81.9647,26.8,1111122 
SCCF RECON,ioos:station:SCCF:16:1,2017-10-07T19:30:00Z,26.4345,-81.9647,27.3,1111122 
SCCF RECON,ioos:station:SCCF:16:1,2017-10-07T20:30:00Z,26.4345,-81.9647,26.9,1111122 
SCCF RECON,ioos:station:SCCF:16:1,2017-10-07T21:30:00Z,26.4345,-81.9647,26.8,1111122 
SCCF RECON,ioos:station:SCCF:16:1,2017-10-07T22:30:00Z,26.4345,-81.9647,26.9,1111122 
SCCF RECON,ioos:station:SCCF:16:1,2017-10-08T04:30:00Z,26.4345,-81.9647,26.2,1111122 
SCCF RECON,ioos:station:SCCF:16:1,2017-10-08T05:30:00Z,26.4345,-81.9647,26.1,1111122 
SCCF RECON,ioos:station:SCCF:16:1,2017-10-08T06:30:00Z,26.4345,-81.9647,26.4,1111122 
SCCF RECON,ioos:station:SCCF:16:1,2017-10-08T07:30:00Z,26.4345,-81.9647,25.6,1111122 
SCCF RECON,ioos:station:SCCF:16:1,2017-10-08T08:30:00Z,26.4345,-81.9647,25.5,1111122 
SCCF RECON,ioos:station:SCCF:16:1,2017-10-08T09:30:00Z,26.4345,-81.9647,25.3,1111122 
SCCF RECON,ioos:station:SCCF:16:1,2017-10-08T10:30:00Z,26.4345,-81.9647,25.0,1111122 
SCCF RECON,ioos:station:SCCF:16:1,2017-10-08T11:30:00Z,26.4345,-81.9647,24.7,1111122 
SCCF RECON,ioos:station:SCCF:16:1,2017-10-08T12:30:00Z,26.4345,-81.9647,24.9,1111122 
SCCF RECON,ioos:station:SCCF:16:1,2017-10-08T13:30:00Z,26.4345,-81.9647,25.2,1111122 
SCCF RECON,ioos:station:SCCF:16:1,2017-10-08T14:30:00Z,26.4345,-81.9647,26.0,1111122 
SCCF RECON,ioos:station:SCCF:16:1,2017-10-08T15:30:00Z,26.4345,-81.9647,27.1,1111122 
SCCF RECON,ioos:station:SCCF:16:1,2017-10-08T16:30:00Z,26.4345,-81.9647,27.4,1111122 
SCCF RECON,ioos:station:SCCF:16:1,2017-10-08T17:30:00Z,26.4345,-81.9647,27.7,1111122 
SCCF RECON,ioos:station:SCCF:16:1,2017-10-08T18:30:00Z,26.4345,-81.9647,27.2,1111122 
SCCF RECON,ioos:station:SCCF:16:1,2017-10-08T19:30:00Z,26.4345,-81.9647,27.1,1111122 
SCCF RECON,ioos:station:SCCF:16:1,2017-10-08T20:30:00Z,26.4345,-81.9647,27.0,1111122 
SCCF RECON,ioos:station:SCCF:16:1,2017-10-08T21:30:00Z,26.4345,-81.9647,26.7,1111122 
SCCF RECON,ioos:station:SCCF:16:1,2017-10-08T22:30:00Z,26.4345,-81.9647,26.7,1111122 
SCCF RECON,ioos:station:SCCF:16:1,2017-10-09T04:30:00Z,26.4345,-81.9647,25.1,1111122 
SCCF RECON,ioos:station:SCCF:16:1,2017-10-09T05:30:00Z,26.4345,-81.9647,24.9,1111122 
SCCF RECON,ioos:station:SCCF:16:1,2017-10-09T06:30:00Z,26.4345,-81.9647,24.9,1111122 
SCCF RECON,ioos:station:SCCF:16:1,2017-10-09T07:30:00Z,26.4345,-81.9647,25.3,1111122 
SCCF RECON,ioos:station:SCCF:16:1,2017-10-09T08:30:00Z,26.4345,-81.9647,25.4,1111122 
SCCF RECON,ioos:station:SCCF:16:1,2017-10-09T09:30:00Z,26.4345,-81.9647,25.4,1111122 
SCCF RECON,ioos:station:SCCF:16:1,2017-10-09T10:30:00Z,26.4345,-81.9647,25.3,1111122 
SCCF RECON,ioos:station:SCCF:16:1,2017-10-09T11:30:00Z,26.4345,-81.9647,25.0,1111122 
SCCF RECON,ioos:station:SCCF:16:1,2017-10-09T12:30:00Z,26.4345,-81.9647,24.7,1111122 
SCCF RECON,ioos:station:SCCF:16:1,2017-10-09T13:30:00Z,26.4345,-81.9647,25.1,1111122 
SCCF RECON,ioos:station:SCCF:16:1,2017-10-09T14:30:00Z,26.4345,-81.9647,26.3,1111122 
SCCF RECON,ioos:station:SCCF:16:1,2017-10-09T15:30:00Z,26.4345,-81.9647,27.6,1111122 
SCCF RECON,ioos:station:SCCF:16:1,2017-10-09T16:30:00Z,26.4345,-81.9647,28.9,1111122 
SCCF RECON,ioos:station:SCCF:16:1,2017-10-09T18:00:00Z,26.4345,-81.9647,29.8,1111122 
SCCF RECON,ioos:station:SCCF:16:1,2017-10-09T18:30:00Z,26.4345,-81.9647,30.4,1111122 
SCCF RECON,ioos:station:SCCF:16:1,2017-10-09T19:30:00Z,26.4345,-81.9647,31.6,1111122 
SCCF RECON,ioos:station:SCCF:16:1,2017-10-09T20:30:00Z,26.4345,-81.9647,31.7,1111122 
SCCF RECON,ioos:station:SCCF:16:1,2017-10-09T21:30:00Z,26.4345,-81.9647,31.4,1111122 
SCCF RECON,ioos:station:SCCF:16:1,2017-10-09T22:30:00Z,26.4345,-81.9647,31.1,1111122 
SCCF RECON,ioos:station:SCCF:16:1,2017-10-10T04:30:00Z,26.4345,-81.9647,25.5,1111122 
SCCF RECON,ioos:station:SCCF:16:1,2017-10-10T05:30:00Z,26.4345,-81.9647,25.1,1111122 
SCCF RECON,ioos:station:SCCF:16:1,2017-10-10T06:30:00Z,26.4345,-81.9647,24.8,1111122 
SCCF RECON,ioos:station:SCCF:16:1,2017-10-10T07:30:00Z,26.4345,-81.9647,24.6,1111122 
SCCF RECON,ioos:station:SCCF:16:1,2017-10-10T08:30:00Z,26.4345,-81.9647,24.5,1111122 
SCCF RECON,ioos:station:SCCF:16:1,2017-10-10T09:30:00Z,26.4345,-81.9647,24.3,1111122 
SCCF RECON,ioos:station:SCCF:16:1,2017-10-10T10:30:00Z,26.4345,-81.9647,23.5,1111122 
SCCF RECON,ioos:station:SCCF:16:1,2017-10-10T11:30:00Z,26.4345,-81.9647,23.5,1111122 
SCCF RECON,ioos:station:SCCF:16:1,2017-10-10T12:30:00Z,26.4345,-81.9647,23.4,1111122 
SCCF RECON,ioos:station:SCCF:16:1,2017-10-10T13:30:00Z,26.4345,-81.9647,24.9,1111122 
SCCF RECON,ioos:station:SCCF:16:1,2017-10-10T14:30:00Z,26.4345,-81.9647,26.3,1111122 
SCCF RECON,ioos:station:SCCF:16:1,2017-10-10T15:30:00Z,26.4345,-81.9647,27.2,1111122 
SCCF RECON,ioos:station:SCCF:16:1,2017-10-10T16:30:00Z,26.4345,-81.9647,28.4,1111122 
SCCF RECON,ioos:station:SCCF:16:1,2017-10-10T17:30:00Z,26.4345,-81.9647,29.2,1111122 
SCCF RECON,ioos:station:SCCF:16:1,2017-10-10T18:30:00Z,26.4345,-81.9647,30.6,1111122 
SCCF RECON,ioos:station:SCCF:16:1,2017-10-10T19:30:00Z,26.4345,-81.9647,26.1,1111122 
SCCF RECON,ioos:station:SCCF:16:1,2017-10-10T20:30:00Z,26.4345,-81.9647,28.4,1111122 
SCCF RECON,ioos:station:SCCF:16:1,2017-10-10T21:30:00Z,26.4345,-81.9647,28.0,1111122 
SCCF RECON,ioos:station:SCCF:16:1,2017-10-10T22:30:00Z,26.4345,-81.9647,30.1,1111122 
SCCF RECON,ioos:station:SCCF:16:1,2017-10-11T04:30:00Z,26.4345,-81.9647,25.1,1111122 
SCCF RECON,ioos:station:SCCF:16:1,2017-10-11T05:30:00Z,26.4345,-81.9647,23.8,1111122 
SCCF RECON,ioos:station:SCCF:16:1,2017-10-11T06:30:00Z,26.4345,-81.9647,23.5,1111122 
SCCF RECON,ioos:station:SCCF:16:1,2017-10-11T07:30:00Z,26.4345,-81.9647,23.3,1111122 
SCCF RECON,ioos:station:SCCF:16:1,2017-10-11T08:30:00Z,26.4345,-81.9647,22.9,1111122 
SCCF RECON,ioos:station:SCCF:16:1,2017-10-11T09:30:00Z,26.4345,-81.9647,22.9,1111122 
SCCF RECON,ioos:station:SCCF:16:1,2017-10-11T10:30:00Z,26.4345,-81.9647,22.6,1111122 
SCCF RECON,ioos:station:SCCF:16:1,2017-10-11T11:30:00Z,26.4345,-81.9647,22.3,1111122 
SCCF RECON,ioos:station:SCCF:16:1,2017-10-11T12:30:00Z,26.4345,-81.9647,22.9,1111122 
SCCF RECON,ioos:station:SCCF:16:1,2017-10-11T13:30:00Z,26.4345,-81.9647,24.5,1111122 
SCCF RECON,ioos:station:SCCF:16:1,2017-10-11T14:30:00Z,26.4345,-81.9647,25.9,1111122 
SCCF RECON,ioos:station:SCCF:16:1,2017-10-11T15:30:00Z,26.4345,-81.9647,26.8,1111122 
SCCF RECON,ioos:station:SCCF:16:1,2017-10-11T16:30:00Z,26.4345,-81.9647,28.5,1111122 
SCCF RECON,ioos:station:SCCF:16:1,2017-10-11T17:30:00Z,26.4345,-81.9647,29.6,1111122 
SCCF RECON,ioos:station:SCCF:16:1,2017-10-11T18:30:00Z,26.4345,-81.9647,30.3,1111122 
SCCF RECON,ioos:station:SCCF:16:1,2017-10-11T19:30:00Z,26.4345,-81.9647,30.7,1111122 
SCCF RECON,ioos:station:SCCF:16:1,2017-10-11T20:30:00Z,26.4345,-81.9647,31.0,1111122 
SCCF RECON,ioos:station:SCCF:16:1,2017-10-11T21:30:00Z,26.4345,-81.9647,31.1,1111122 
SCCF RECON,ioos:station:SCCF:16:1,2017-10-11T22:30:00Z,26.4345,-81.9647,30.4,1111122 
SCCF RECON,ioos:station:SCCF:16:1,2017-10-12T05:00:00Z,26.4345,-81.9647,23.8,1111122 
SCCF RECON,ioos:station:SCCF:16:1,2017-10-12T05:30:00Z,26.4345,-81.9647,23.6,1111122 
SCCF RECON,ioos:station:SCCF:16:1,2017-10-12T06:30:00Z,26.4345,-81.9647,23.3,1111122 
SCCF RECON,ioos:station:SCCF:16:1,2017-10-12T07:30:00Z,26.4345,-81.9647,22.9,1111122 
SCCF RECON,ioos:station:SCCF:16:1,2017-10-12T08:30:00Z,26.4345,-81.9647,22.6,1111122 
SCCF RECON,ioos:station:SCCF:16:1,2017-10-12T09:30:00Z,26.4345,-81.9647,22.3,1111122 
SCCF RECON,ioos:station:SCCF:16:1,2017-10-12T10:30:00Z,26.4345,-81.9647,22.3,1111122 
SCCF RECON,ioos:station:SCCF:16:1,2017-10-12T11:30:00Z,26.4345,-81.9647,22.1,1111122 
SCCF RECON,ioos:station:SCCF:16:1,2017-10-12T12:30:00Z,26.4345,-81.9647,21.7,1111122 
SCCF RECON,ioos:station:SCCF:16:1,2017-10-12T13:30:00Z,26.4345,-81.9647,23.4,1111122 
SCCF RECON,ioos:station:SCCF:16:1,2017-10-12T14:30:00Z,26.4345,-81.9647,24.9,1111122 
SCCF RECON,ioos:station:SCCF:16:1,2017-10-12T15:30:00Z,26.4345,-81.9647,25.1,1111122 
SCCF RECON,ioos:station:SCCF:16:1,2017-10-12T16:30:00Z,26.4345,-81.9647,26.8,1111122 
SCCF RECON,ioos:station:SCCF:16:1,2017-10-12T17:30:00Z,26.4345,-81.9647,28.1,1111122 
SCCF RECON,ioos:station:SCCF:16:1,2017-10-12T18:30:00Z,26.4345,-81.9647,27.4,1111122 
SCCF RECON,ioos:station:SCCF:16:1,2017-10-12T19:30:00Z,26.4345,-81.9647,27.9,1111122 
SCCF RECON,ioos:station:SCCF:16:1,2017-10-12T20:30:00Z,26.4345,-81.9647,28.0,1111122 
SCCF RECON,ioos:station:SCCF:16:1,2017-10-12T21:30:00Z,26.4345,-81.9647,25.3,1111122 
SCCF RECON,ioos:station:SCCF:16:1,2017-10-12T22:30:00Z,26.4345,-81.9647,24.7,1111122 
SCCF RECON,ioos:station:SCCF:16:1,2017-10-13T04:30:00Z,26.4345,-81.9647,23.4,1111122 
SCCF RECON,ioos:station:SCCF:16:1,2017-10-13T05:30:00Z,26.4345,-81.9647,23.2,1111122 
SCCF RECON,ioos:station:SCCF:16:1,2017-10-13T06:30:00Z,26.4345,-81.9647,22.7,1111122 
SCCF RECON,ioos:station:SCCF:16:1,2017-10-13T07:30:00Z,26.4345,-81.9647,22.2,1111122 
SCCF RECON,ioos:station:SCCF:16:1,2017-10-13T08:30:00Z,26.4345,-81.9647,22.2,1111122 
SCCF RECON,ioos:station:SCCF:16:1,2017-10-13T09:30:00Z,26.4345,-81.9647,22.2,1111122 
SCCF RECON,ioos:station:SCCF:16:1,2017-10-13T10:30:00Z,26.4345,-81.9647,22.1,1111122 
SCCF RECON,ioos:station:SCCF:16:1,2017-10-13T11:30:00Z,26.4345,-81.9647,22.1,1111122 
SCCF RECON,ioos:station:SCCF:16:1,2017-10-13T12:30:00Z,26.4345,-81.9647,22.7,1111122 
SCCF RECON,ioos:station:SCCF:16:1,2017-10-13T13:30:00Z,26.4345,-81.9647,24.1,1111122 
SCCF RECON,ioos:station:SCCF:16:1,2017-10-13T14:30:00Z,26.4345,-81.9647,25.4,1111122 
SCCF RECON,ioos:station:SCCF:16:1,2017-10-13T15:30:00Z,26.4345,-81.9647,26.4,1111122 
SCCF RECON,ioos:station:SCCF:16:1,2017-10-13T16:30:00Z,26.4345,-81.9647,24.8,1111122 
SCCF RECON,ioos:station:SCCF:16:1,2017-10-13T17:30:00Z,26.4345,-81.9647,29.0,1111122 
SCCF RECON,ioos:station:SCCF:16:1,2017-10-13T18:30:00Z,26.4345,-81.9647,29.2,1111122 
SCCF RECON,ioos:station:SCCF:16:1,2017-10-13T19:30:00Z,26.4345,-81.9647,29.2,1111122 
SCCF RECON,ioos:station:SCCF:16:1,2017-10-13T20:30:00Z,26.4345,-81.9647,29.1,1111122 
SCCF RECON,ioos:station:SCCF:16:1,2017-10-13T21:30:00Z,26.4345,-81.9647,29.3,1111122 
SCCF RECON,ioos:station:SCCF:16:1,2017-10-13T22:30:00Z,26.4345,-81.9647,28.6,1111122 
SCCF RECON,ioos:station:SCCF:16:1,2017-10-14T04:30:00Z,26.4345,-81.9647,22.5,1111122 
SCCF RECON,ioos:station:SCCF:16:1,2017-10-14T05:30:00Z,26.4345,-81.9647,24.3,1111122 
SCCF RECON,ioos:station:SCCF:16:1,2017-10-14T06:30:00Z,26.4345,-81.9647,24.2,1111122 
SCCF RECON,ioos:station:SCCF:16:1,2017-10-14T07:30:00Z,26.4345,-81.9647,23.8,1111122 
SCCF RECON,ioos:station:SCCF:16:1,2017-10-14T08:30:00Z,26.4345,-81.9647,23.0,1111122 
SCCF RECON,ioos:station:SCCF:16:1,2017-10-14T09:30:00Z,26.4345,-81.9647,22.4,1111122 
SCCF RECON,ioos:station:SCCF:16:1,2017-10-14T10:30:00Z,26.4345,-81.9647,22.4,1111122 
SCCF RECON,ioos:station:SCCF:16:1,2017-10-14T11:30:00Z,26.4345,-81.9647,22.4,1111122 
SCCF RECON,ioos:station:SCCF:16:1,2017-10-14T12:30:00Z,26.4345,-81.9647,22.2,1111122 
SCCF RECON,ioos:station:SCCF:16:1,2017-10-14T13:30:00Z,26.4345,-81.9647,24.0,1111122 
SCCF RECON,ioos:station:SCCF:16:1,2017-10-14T14:30:00Z,26.4345,-81.9647,25.4,1111122 
SCCF RECON,ioos:station:SCCF:16:1,2017-10-14T15:30:00Z,26.4345,-81.9647,26.8,1111122 
SCCF RECON,ioos:station:SCCF:16:1,2017-10-14T16:30:00Z,26.4345,-81.9647,27.9,1111122 
SCCF RECON,ioos:station:SCCF:16:1,2017-10-14T17:30:00Z,26.4345,-81.9647,28.7,1111122 
SCCF RECON,ioos:station:SCCF:16:1,2017-10-14T18:30:00Z,26.4345,-81.9647,29.6,1111122 
SCCF RECON,ioos:station:SCCF:16:1,2017-10-14T19:30:00Z,26.4345,-81.9647,29.1,1111122 
SCCF RECON,ioos:station:SCCF:16:1,2017-10-14T20:30:00Z,26.4345,-81.9647,27.6,1111122 
SCCF RECON,ioos:station:SCCF:16:1,2017-10-14T21:30:00Z,26.4345,-81.9647,25.6,1111122 
SCCF RECON,ioos:station:SCCF:16:1,2017-10-14T22:30:00Z,26.4345,-81.9647,26.2,1111122 
SCCF RECON,ioos:station:SCCF:16:1,2017-10-15T04:30:00Z,26.4345,-81.9647,24.1,1111122 
SCCF RECON,ioos:station:SCCF:16:1,2017-10-15T05:30:00Z,26.4345,-81.9647,23.6,1111122 
SCCF RECON,ioos:station:SCCF:16:1,2017-10-15T06:30:00Z,26.4345,-81.9647,23.1,1111122 
SCCF RECON,ioos:station:SCCF:16:1,2017-10-15T07:30:00Z,26.4345,-81.9647,22.8,1111122 
SCCF RECON,ioos:station:SCCF:16:1,2017-10-15T08:30:00Z,26.4345,-81.9647,22.4,1111122 
SCCF RECON,ioos:station:SCCF:16:1,2017-10-15T09:30:00Z,26.4345,-81.9647,22.4,1111122 
SCCF RECON,ioos:station:SCCF:16:1,2017-10-15T10:30:00Z,26.4345,-81.9647,22.0,1111122 
SCCF RECON,ioos:station:SCCF:16:1,2017-10-15T11:30:00Z,26.4345,-81.9647,22.1,1111122 
SCCF RECON,ioos:station:SCCF:16:1,2017-10-15T12:30:00Z,26.4345,-81.9647,22.1,1111122 
SCCF RECON,ioos:station:SCCF:16:1,2017-10-15T13:30:00Z,26.4345,-81.9647,23.4,1111122 
SCCF RECON,ioos:station:SCCF:16:1,2017-10-15T14:30:00Z,26.4345,-81.9647,25.1,1111122 
SCCF RECON,ioos:station:SCCF:16:1,2017-10-15T15:30:00Z,26.4345,-81.9647,26.6,1111122 
SCCF RECON,ioos:station:SCCF:16:1,2017-10-15T16:30:00Z,26.4345,-81.9647,27.4,1111122 
SCCF RECON,ioos:station:SCCF:16:1,2017-10-15T17:30:00Z,26.4345,-81.9647,27.3,1111122 
SCCF RECON,ioos:station:SCCF:16:1,2017-10-15T18:30:00Z,26.4345,-81.9647,27.2,1111122 